www.pogodaiklimat.ru

Погода и климат >> Архив погоды >> Казахстан >> Петропавловск


АРХИВ ПОГОДЫ в Петропавловске

Время (UTC), дата Ветер
(напр.,м/с)
 
Видим.   Явления Облачность Т
(С)
Тd
(С)
f
(%)
Тe
(С)
Тes
(С)
Комфортность P
(гПа)
Po
(гПа)
Тmin
(С)
Tmax
(С)
R
(мм)
R24
(мм)
S
(см)
00 16.07 ЮВ 6 10 км ясно +19.8 +13.5 67 +21 +21 комфорт 1006.1 994.5
03 16.07 ЮВ 6 10 км 1/0
[Cc]
+23.4 +14.1 56 +27 +29 душно 1005.2 993.7
06 16.07 В 8
{17}
10 км ясно +29.8 +14.2 39 +32 +34 душно 1003.9 992.6 +19.6
09 16.07 ЮВ 8
{17}
10 км 3/0
[Cc]
+32.8 +13.4 31 +34 +36 очень
жарко
1003.0 991.9
12 16.07 З 7
{17}
10 км 9/3 1000 м
[Sc diur, vesp Ac cast Cc]
+28.3 +17.1 51 +32 +33 душно 1004.0 992.7
15 16.07 З 3 10 км 3/1 1000 м
[Sc diur, vesp Ac cast Cc]
+25.2 +17.2 61 +29 +29 душно 1005.0 993.6 +33.8
18 16.07 З 3 н/о ясно +18.8 +14.7 77 +20 +20 тепло 1007.2 995.4 +33.8
21 16.07 З 4 н/о ясно +17.0 +13.3 79 +17 +17 тепло 1007.9 996.1
00 17.07 З 3 10 км 3/0
[Ci fib]
+15.3 +13.3 88 +15 +15 по сезону 1008.7 996.8
03 17.07 СЗ 7 10 км 8/6 1000 м
[Sc diur, vesp Ac trans]
+19.0 +14.4 75 +20 +20 тепло 1009.5 997.8
06 17.07 СЗ 5 10 км 9/5 1000 м
[Cu med, cong Ci fib]
+21.2 +13.4 61 +24 +27 комфорт 1010.0 998.4 +15.3
09 17.07 СЗ 7 10 км 6/0
[Ac trans Cc]
+25.0 +11.5 43 +26 +29 жарко 1009.7 998.2
12 17.07 СЗ 6 10 км 4/0
[Ac trans Ci fib]
+26.3 +11.2 39 +27 +29 жарко 1010.1 998.6
15 17.07 СЗ 3 10 км 3/0
[Ci fib]
+23.7 +13.4 52 +26 +26 жарко 1010.6 999.1 +26.3
18 17.07 штиль 0 н/о 3/0
[Ci fib]
+16.5 +12.7 78 +16 +16 по сезону 1012.1 1000.3 +26.3
21 17.07 штиль 0 н/о 3/0
[Cc]
+13.6 +11.0 84 +13 +13 прохладно 1012.7 1000.7
00 18.07 штиль 0 10 км 6/0
[Ci fib]
+12.1 +10.0 87 +12 +12 по сезону 1013.0 1001.0
03 18.07 З 1 10 км 4/0
[Cc]
+20.2 +13.6 66 +23 +30 комфорт 1013.5 1001.8
06 18.07 З 3 10 км 6/3 1500 м
[Cu hum Ci fib]
+25.1 +9.9 38 +26 +33 жарко 1013.2 1001.7 +12.1
09 18.07 штиль 0 50 км ?/? +27.6 +11.4 36 +28 +28 жарко 1012.5 1001.1
12 18.07 З 3 10 км 4/0
[Ac trans Ci fib]
+27.2 +12.4 40 +29 +32 жарко 1012.0 1000.5
15 18.07 З 2 10 км ясно +25.4 +13.5 48 +28 +28 жарко 1011.9 1000.4 +27.6
18 18.07 штиль 0 н/о 3/0
[Ac trans]
+18.7 +14.4 76 +19 +19 тепло 1012.2 1000.4 +27.6
21 18.07 штиль 0 н/о 3/0
[Ac trans]
+15.3 +11.8 80 +15 +15 по сезону 1012.6 1000.6
00 19.07 штиль 0 10 км ясно +13.5 +10.2 80 +13 +13 по сезону 1013.2 1001.1
03 19.07 СВ 1 10 км ясно +21.8 +15.8 69 +25 +32 комфорт 1012.6 1001.0
06 19.07 Ю 2 10 км ясно +26.0 +14.3 48 +28 +42 жарко 1012.0 1000.5 +13.5
09 19.07 СЗ 3 10 км ясно +28.7 +13.4 39 +30 +42 жарко 1010.9 999.5
12 19.07 С 2 10 км ясно +29.4 +12.0 34 +30 +35 жарко 1010.9 999.6
15 19.07 С 2 10 км ясно +25.2 +13.7 49 +27 +28 жарко 1011.1 999.6 +29.4
18 19.07 ЮВ 3 н/о ясно +18.4 +14.6 79 +19 +19 тепло 1012.6 1000.8 +29.4
21 19.07 С 1 н/о ясно +15.6 +12.3 81 +16 +16 по сезону 1012.8 1000.8
00 20.07 СЗ 1 10 км ясно +14.5 +10.3 76 +15 +15 по сезону 1013.8 1001.9
03 20.07 СВ 2 10 км ясно +22.8 +14.7 60 +26 +32 жарко 1013.7 1002.0
06 20.07 ЮВ 3 10 км ясно +26.4 +14.2 47 +29 +40 жарко 1013.4 1001.9 +14.5
09 20.07 СВ 2 10 км 1/0
[Ac trans]
+28.9 +12.8 37 +30 +43 жарко 1012.3 1000.9
12 20.07 10 км 3/0
[Ac trans Ci fib]
+30.1 +13.9 37 1011.5 1000.1
15 20.07 штиль 0 10 км 3/0
[Ac trans Ci fib]
+26.8 +18.3 60 +32 +32 очень
душно
1011.2 999.7 +30.5
18 20.07 штиль 0 н/о 4/1 1000 м
[Sc Ac trans Ci fib]
+20.6 +17.5 82 +24 +24 комфорт 1011.2 999.5 +30.5
21 20.07 н/о туман поземный 1/0
[Ac trans]
+17.8 +16.3 91 1010.3 998.5
00 21.07 штиль 0 10 км 1/0
[Ac trans]
+17.2 +15.5 90 +17 +17 тепло 1009.6 997.8
03 21.07 ЮВ 2 10 км 1/0
[Ac trans]
+24.1 +17.4 66 +28 +33 душно 1009.1 997.6
06 21.07 ЮВ 5 10 км 3/0
[Ac trans Cc]
+28.9 +15.7 45 +32 +38 душно 1007.4 996.1 +17.2
09 21.07 ЮВ 5 10 км 4/1 1000 м
[Cu hum Ac trans Ci fib]
+30.9 +15.5 39 +33 +39 душно 1006.0 994.8
12 21.07 В 3 10 км 8/1 1000 м
[Cu hum Ac trans Cc]
+30.1 +16.8 45 +34 +36 очень
душно
1005.1 993.9
15 21.07 В 5 10 км 6/0
[Ac trans Cc]
+26.3 +17.4 58 +30 +30 душно 1003.9 992.5 +31.3
18 21.07 В 4 н/о 6/0
[Ac trans Cc]
+23.3 +17.4 69 +29 +29 душно 1003.0 991.5 +31.3
21 21.07 С 2 н/о слаб. ливневой дождь 10/10 1000 м
[Cb cap]
+20.9 +18.7 87 +26 +26 душно 1002.6 991.1
00 22.07 ЮЗ 2 10 км {ливн. осадки} 9/4 1000 м
[Cb cap Ac trans]
+19.9 +18.0 89 +23 +23 комфорт 1002.3 990.7
03 22.07 СЗ 2 10 км 10/10 1000 м
[Cb cap]
+19.6 +17.2 86 +22 +22 комфорт 1002.6 991.0
06 22.07 З 4 10 км 6/4 1000 м
[Sc Ac trans]
+22.2 +17.0 72 +27 +31 душно 1002.6 991.1 +19.6 1
09 22.07 З 5 10 км 8/4 1000 м
[Sc Ac trans]
+22.8 +16.5 68 +27 +30 душно 1002.7 991.2
12 22.07 З 6 10 км 8/8 1000 м
[Sc]
+21.0 +13.8 63 +24 +24 комфорт 1003.8 992.2
15 22.07 СЗ 5 10 км 9/9 1000 м
[Sc]
+20.3 +14.7 70 +23 +23 комфорт 1004.4 992.8 +23.7
18 22.07 З 3 н/о 6/0
[Ac trans]
+19.2 +15.7 80 +21 +21 комфорт 1004.5 992.9 +23.7
21 22.07 З 2 н/о 8/6 1000 м
[Sc Ac trans]
+18.3 +15.4 83 +19 +19 тепло 1004.4 992.7

 

Местоположение метеостанции Петропавловск (Северо-Казахстанская область, Казахстан): широта 54.83 долгота 69.15 высота над уровнем моря 136 м.

В архиве по умолчанию представлена погода в Петропавловске за последнюю неделю. Архивные данные за месяц целиком и за предыдущие месяцы, начиная с января 2011 года, Вы можете получить, выбрав интересующий диапазон дат из раскрывающегося списка и нажав кнопку "Ввод!".


*Определитесь, кто Вы:
робот инопланетянин человек

Внимание! Время в таблицах - всемирное. Для получения местного времени необходимо прибавить поправку, которая равна 6 ч.

Смотрите также архив погоды в соседних городах и на ближайших метеорологических станциях:

Погода в Петропавловске город (Северо-Казахстанская область, Казахстан) (2 км)
Погода в Смирново (Северо-Казахстанская область, Казахстан) (40 км)
Погода в Мамлютке (Северо-Казахстанская область, Казахстан) (42 км)
Погода в Ильинке (Омская область, Россия) (70 км)
Погода в Булаево (Северо-Казахстанская область, Казахстан) (83 км)
Погода в Сладково (Тюменская область, Россия) (108 км)
Погода в Тайынше (Северо-Казахстанская область, Казахстан) (118 км)
Погода в Бердюжьем (Тюменская область, Россия) (122 км)
Погода в Возвышенке (Северо-Казахстанская область, Казахстан) (122 км)
Погода в Макушино (Курганская область, Россия) (127 км)

Пояснения к столбцам:

Ветер - указаны скорость ветра в м/с - средняя за 10 мин, порывы в срок и между сроками (в фигурных скобках) и направление, откуда дует ветер: С - северный, СВ - северо-восточный, В - восточный, ЮВ - юго-восточный, Ю - южный, ЮЗ - юго-западный, З - западный, СЗ - северо-западный.
Видимость - горизонтальная дальность видимости в метрах или километрах. При видимости от 1 до 10 км при отсутствии осадков обычно наблюдается дымка, при ухудшении видимости до 1 км и менее - туман. В сухую погоду видимость может ухудшаться дымом, пылью или мглою.
Явления - указаны атмосферные явления, наблюдавшиеся в срок или в последний час перед сроком; фигурными скобками обозначены явления, наблюдавшиеся между сроками (за 1-3 часа до срока); квадратными скобками обозначены град или гололедные отложения с указанием их диаметра в мм.
Облачность - указаны через наклонную черту общая и нижняя облачность в баллах и высота нижней границы облаков в метрах; квадратными скобками обозначены формы облаков: Ci - перистые, Cs - перисто-слоистые, Cc - перисто-кучевые, Ac - высококучевые, As - высокослоистые, Sc - слоисто-кучевые, Ns - слоисто-дождевые, Cu - кучевые, Cb - кучево-дождевые. Подробнее классификацию облаков см. в Атласе облаков (PDF).
T - Температура воздуха - температура, измеренная на высоте 2 м над землей.
Td - Температура точки росы - температура, при понижении до которой содержащийся в воздухе водяной пар достигнет насыщения.
f - Относительная влажность воздуха - влажноcть воздуха, измеренная на высоте 2 м над землей.
Te - Эффективная температура - температура, которую ощущает одетый по сезону человек в тени. Характеристика душности погоды. При расчете учитывается влияние влажности воздуха и скорости ветра на теплоощущения человека.
Tes - Эффективная температура на солнце - температура, которую ощущает человек, с поправкой на солнечный нагрев. Характеристика знойности погоды. Зависит от высоты солнца над горизонтом, облачности и скорости ветра. Ночью, в пасмурную погоду, а также при ветре 12 м/с и более поправка равна нулю.
P - Атмосферное давление - приведенное к уровню моря атмосферное давление.
Po - Атмосферное давление - измеренное на уровне метеостанции атмосферное давление.
Tmin - Минимальная температура - минимум температуры воздуха на высоте 2 м над землей.
Tmax - Максимальная температура - максимум температуры воздуха на высоте 2 м над землей.
R - Количество осадков - Количество выпавших осадков за период времени, мм. При наведении курсора мыши на число - период времени, за который выпало указанное количество осадков.
R24 - Количество осадков - Количество выпавших осадков за 24 часа, мм.
S - Снежный покров - Высота снежного покрова, см. При наведении курсора мыши на число - состояние снежного покрова и степень покрытия местности в баллах.